{"data":{"norad_id":69562,"epoch":"2026-09-18T21:02:51.980928Z","epoch_age_seconds":161889,"freshness":"FRESH","line1":"1 69562U 26135S   26261.87699052  .00016209  00000+0  50323-3 0  9991","line2":"2 69562  97.2862 289.6203 0000419 144.3376 215.7895 15.33451465 14757","mean_motion":15.33451465,"eccentricity":4.19e-5,"inclination_deg":97.2862,"raan_deg":289.6203,"arg_perigee_deg":144.3376,"mean_anomaly_deg":215.7895,"bstar":0.00050323,"rev_number":1475,"period_min":93.905808750197,"perigee_km":465.23718986087,"apogee_km":465.81068864758,"semimajor_km":6843.6609392542,"source":"CELESTRAK","updated_at":"2026-09-20T09:00:44.244914Z"}}